Toronto Pearson, Ontario

3:12 AM EST on February 20, 2018 (GMT -0500)
Toronto-Pearson International

Weather History for CYYZ - January, 2014

Change the Weather History Date:

Tuesday, January 7, 2014

  Actual Average Record
Temperature  
Mean Temperature -5 °F -  
Max Temperature 1 °F 28 °F 59 °F (2008)
Min Temperature -11 °F 12 °F -11 °F (2014)
Degree Days  
Heating Degree Days 70    
Moisture  
Dew Point -12 °F    
Average Humidity 64    
Maximum Humidity 72    
Minimum Humidity 45    
Precipitation  
Precipitation 0.00 in 0.06 in - ()
Sea Level Pressure  
Sea Level Pressure 30.07 in    
Wind  
Wind Speed 25 mph ()    
Max Wind Speed 38 mph    
Max Gust Speed 48 mph    
Visibility 13.8 miles    
Events Snow    
Averages and records for this station are not official NWS values.
T = Trace of Precipitation, MM = Missing Value Source: Averaged Metar Reports

Daily Weather History Graph

Daily Weather History Graph

Search for Another Location

Airport or City:

Trip Planner

Search our weather history database for the weather conditions in past years. The results will help you decide how hot, cold, wet, or windy it might be!

Date:

Astronomy

Jan. 07, 2014 Rise Set
Actual Time 7:51 AM EST 4:58 PM EST
Civil Twilight 7:19 AM EST 5:30 PM EST
Nautical Twilight 6:43 AM EST 6:06 PM EST
Astronomical Twilight 6:08 AM EST 6:41 PM EST
Moon 11:25 AM EST (1/7) No Moon Set
Length of Visible Light 10h 11m
Length of Day
9h 06m
Waxing Crescent, 45% of the Moon is Illuminated
Jan 7
Waxing Crescent
Jan 7
First Quarter
Jan 15
Full
Jan 24
Last Quarter
Jan 30
New

Hourly Weather History & Observations

Time (EST) Temp. Windchill Dew Point Humidity Pressure Visibility Wind Dir Wind Speed Gust Speed Precip Events Conditions
12:00 AM 1.4 °F -26.3 °F -5.8 °F 72% 29.81 in 10.0 mi West 38.0 mph 48.3 mph N/A Snow Low Drifting Snow
1:00 AM 0 °F - -8 °F 56% 29.84 in 10 mi West 35.7 mph - - Snow Low Drifting Snow
1:00 AM 1.4 °F -25.3 °F -7.6 °F 66% 29.84 in 10.0 mi West 34.5 mph 44.9 mph N/A Snow Low Drifting Snow
2:00 AM -2.2 °F -30.6 °F -11.2 °F 66% 29.87 in 10.0 mi WSW 35.7 mph 43.7 mph N/A Snow Low Drifting Snow
3:00 AM -7.6 °F -35.3 °F -16.6 °F 65% 29.94 in 15.0 mi WSW 27.6 mph 41.4 mph N/A Snow Low Drifting Snow
4:00 AM -9.4 °F -34.7 °F -18.4 °F 65% 29.97 in 15.0 mi WSW 20.7 mph - N/A   Partly Cloudy
5:00 AM -11.2 °F -39.2 °F -20.2 °F 64% 29.99 in 15.0 mi WSW 25.3 mph 31.1 mph N/A   Partly Cloudy
6:00 AM -11.2 °F -37.6 °F -20.2 °F 64% 30.00 in 15.0 mi WSW 21.9 mph 29.9 mph N/A   Partly Cloudy
7:00 AM -10 °F - -19 °F 49% 30.02 in 15 mi WSW 25.3 mph - -   Scattered Clouds
7:00 AM -11.2 °F -38.7 °F -18.4 °F 70% 30.02 in 15.0 mi WSW 24.2 mph 33.4 mph N/A   Scattered Clouds
8:00 AM -9.4 °F -35.2 °F -18.4 °F 65% 30.05 in 15.0 mi WSW 21.9 mph - N/A   Partly Cloudy
9:00 AM -7.6 °F -32.3 °F -16.6 °F 65% 30.06 in 15.0 mi WSW 20.7 mph 28.8 mph N/A   Partly Cloudy
10:00 AM -5.8 °F -29.4 °F -16.6 °F 60% 30.08 in 15.0 mi WSW 19.6 mph 28.8 mph N/A   Partly Cloudy
11:00 AM -4.0 °F -29.6 °F -13.0 °F 65% 30.09 in 15.0 mi WSW 25.3 mph 34.5 mph N/A   Partly Cloudy
12:00 PM -2.2 °F -28.0 °F -11.2 °F 66% 30.06 in 15.0 mi WSW 27.6 mph 36.8 mph N/A   Partly Cloudy
1:00 PM -1 °F - -12 °F 45% 30.06 in 15 mi WSW 27.6 mph - -   Scattered Clouds
1:00 PM -0.4 °F -24.7 °F -11.2 °F 60% 30.06 in 15.0 mi WSW 25.3 mph 34.5 mph N/A   Partly Cloudy
2:00 PM -0.4 °F -26.4 °F -11.2 °F 60% 30.08 in 12.0 mi WSW 29.9 mph 36.8 mph N/A   Partly Cloudy
3:00 PM 1.4 °F -23.2 °F -9.4 °F 61% 30.10 in 15.0 mi WSW 27.6 mph 33.4 mph N/A   Mostly Cloudy
4:00 PM 1.4 °F -21.9 °F -9.4 °F 61% 30.12 in 15.0 mi WSW 24.2 mph 32.2 mph N/A   Mostly Cloudy
5:00 PM -0.4 °F -21.2 °F -7.6 °F 72% 30.14 in 15.0 mi SW 17.3 mph 27.6 mph N/A   Scattered Clouds
6:00 PM -0.4 °F -22.3 °F -9.4 °F 66% 30.17 in 15.0 mi WSW 19.6 mph 29.9 mph N/A   Mostly Cloudy
7:00 PM -1 °F - -9 °F 57% 30.18 in 15 mi SW 25.3 mph - -   Scattered Clouds
7:00 PM -0.4 °F -25.2 °F -9.4 °F 66% 30.17 in 15.0 mi SW 26.5 mph 34.5 mph N/A   Partly Cloudy
8:00 PM -0.4 °F -24.3 °F -9.4 °F 66% 30.20 in 15.0 mi SW 24.2 mph 34.5 mph N/A   Partly Cloudy
9:00 PM -0.4 °F -24.3 °F -7.6 °F 72% 30.22 in 15.0 mi SW 24.2 mph 31.1 mph N/A Snow Low Drifting Snow
10:00 PM -0.4 °F -22.3 °F -7.6 °F 72% 30.26 in 15.0 mi WSW 19.6 mph 28.8 mph N/A Snow Low Drifting Snow
10:24 PM -0.4 °F -23.3 °F -7.6 °F 72% 30.27 in 10.0 mi SW 21.9 mph 31.1 mph N/A Snow Light Snow
11:00 PM 1.4 °F -20.5 °F -7.6 °F 66% 30.27 in 10.0 mi WSW 20.7 mph - N/A Snow Light Snow
11:10 PM 1.4 °F -19.9 °F -7.6 °F 66% 30.27 in 12.0 mi SW 19.6 mph 25.3 mph N/A Snow Low Drifting Snow